Temperature
22 20 21 20 20 20 20 20 20 20 19 19 19 19 19 19 20 20 20 19 19 19 19 19 19 19 19 20 20 20 20 20 20 20 20 19 19 19 19 18 18 18 18
21 20 22 21 20 20 20 20 20 20 20 19 19 19 19 19 19 19 19 19 19 19 19 19 19 19 19 19 19 20 20 20 20 20 20 19 19 19 19 19 18 18 19
21 20 22 21 20 20 20 20 20 20 19 19 19 19 19 19 19 19 19 19 19 19 19 19 19 19 19 19 19 19 20 20 20 20 19 18 18 19 19 19 19 19 19
20 20 21 21 20 20 20 20 20 20 19 19 19 20 20 20 19 19 19 19 19 19 19 19 19 19 19 19 19 19 19 19 20 19 18 18 18 19 19 19 19 19 19
20 20 21 21 20 20 20 20 20 20 20 20 20 20 20 20 19 19 19 19 19 19 19 19 19 19 19 19 18 18 18 19 19 19 18 18 18 19 19 19 19 19 18
20 19 21 21 21 20 20 20 20 20 20 20 20 20 20 19 19 19 19 19 19 19 19 19 19 19 19 19 18 18 18 18 18 18 18 18 18 18 19 19 19 18 18
20 19 20 21 21 21 20 20 20 20 20 20 20 20 19 19 19 19 19 19 19 19 19 19 19 19 19 19 18 18 18 18 18 17 17 17 17 18 18 18 18 18 18
20 20 19 21 21 20 20 20 20 20 20 20 20 20 19 19 19 19 19 19 19 19 19 19 18 18 18 18 18 18 18 18 17 18 17 17 17 17 18 18 18 18 18
21 20 19 20 21 20 20 20 20 20 20 20 20 20 19 19 19 19 19 19 19 19 19 19 18 18 18 18 18 18 18 18 18 18 18 17 17 18 18 18 18 18 18
21 20 19 20 20 20 20 20 20 20 20 20 20 19 19 19 19 19 19 19 18 18 18 18 18 18 18 18 18 18 18 18 18 18 18 17 18 18 18 18 18 18 18
20 20 19 20 19 19 19 19 19 20 19 19 19 19 19 18 18 18 18 18 19 18 18 18 18 18 18 18 18 18 18 17 18 18 18 18 18 18 18 18 18 18 17
20 19 19 19 18 18 19 18 18 18 18 19 18 18 18 18 18 18 18 19 19 19 18 18 18 18 18 17 18 18 18 18 18 18 18 18 18 18 18 18 18 18 18
20 19 18 18 18 18 18 19 19 19 19 18 18 18 18 18 18 18 18 18 18 18 18 18 18 18 18 18 18 18 18 18 18 18 18 18 18 18 18 18 18 18 18
20 19 19 18 18 18 18 18 18 19 19 19 19 18 18 18 18 18 18 18 18 18 18 18 18 18 18 18 18 18 18 18 18 18 18 18 18 18 18 18 18 18 18
19 19 18 18 18 19 19 19 18 19 19 19 19 18 18 18 18 18 18 18 18 18 18 18 18 18 18 18 18 18 18 18 18 18 18 18 18 18 18 18 18 18 18
19 19 19 19 19 19 19 19 19 18 19 19 19 18 18 18 18 18 18 18 18 18 18 18 18 18 18 18 18 18 18 18 18 18 18 18 18 18 18 18 18 18 18
19 19 19 19 19 19 19 19 19 18 19 19 19 18 18 18 18 18 18 18 18 18 18 18 18 18 18 18 18 18 18 18 18 17 18 18 18 18 19 19 18 18 18
19 19 19 19 19 19 19 19 19 19 19 19 18 18 18 18 18 18 18 18 18 18 18 18 18 18 18 18 18 18 18 18 18 18 18 18 18 18 19 18 19 19 18
19 19 19 19 19 19 19 19 19 18 18 18 18 18 18 18 18 18 18 18 18 18 18 18 18 18 18 18 18 18 18 18 18 18 19 18 19 18 18 18 18 19 19
19 19 19 19 19 19 19 19 18 18 18 18 18 18 18 18 18 18 18 18 18 18 18 18 18 18 18 18 18 18 18 18 18 19 19 19 19 19 19 19 18 18 19
19 19 19 20 20 20 20 20 19 19 18 18 18 19 19 19 19 18 17 17 17 17 18 18 18 17 17 17 17 18 19 19 19 19 19 19 19 19 19 19 18 18 18
18 18 18 19 19 19 20 21 21 20 20 19 18 19 19 20 19 19 18 17 17 17 17 17 17 17 17 17 17 18 19 20 20 19 19 18 18 19 19 19 18 18 18
18 17 17 17 17 18 19 19 20 19 19 19 18 18 19 19 19 18 17 16 16 16 17 17 17 16 17 16 16 16 17 19 19 19 19 18 18 18 18 18 18 18 18
18 18 17 17 17 17 17 17 18 18 18 19 18 18 18 18 17 16 16 15 15 16 16 16 16 16 16 16 16 15 15 16 15 17 18 18 18 17 17 17 18 17 17
19 18 18 17 17 17 17 17 17 17 17 17 16 17 17 16 15 15 15 15 15 15 15 16 16 16 16 15 16 15 15 15 15 15 16 17 17 17 17 17 17 17 17
18 18 17 17 16 16 16 16 16 16 16 15 15 15 15 15 14 14 14 14 14 15 15 15 15 15 15 15 15 15 15 15 15 15 15 16 16 17 17 17 17 17 17
Wind_Speed
14 19 22 17 14 13 14 16 18 18 18 16 15 15 14 13 11 10 10 10 10 10 11 10 10 10 10 10 10 10 10 10 10 10 10 9 8 9 9 9 8 12 11
17 21 23 19 17 15 15 16 18 18 18 17 16 15 14 12 10 9 9 8 8 8 9 9 9 9 8 8 8 8 8 7 8 8 7 9 8 6 6 4 3 11 10
18 21 22 19 18 17 16 16 18 18 17 17 16 15 14 13 11 10 9 8 8 7 7 7 7 7 7 7 7 6 6 5 5 5 5 7 9 7 5 5 5 8 9
18 20 21 21 18 17 16 16 17 17 16 15 14 13 13 12 12 11 10 9 8 7 6 5 6 5 5 6 6 5 5 4 4 5 7 3 6 10 7 7 6 6 7
16 18 19 21 19 17 17 16 16 16 15 14 13 12 12 12 11 11 10 8 7 7 6 5 5 4 4 4 5 5 5 5 5 9 5 4 4 8 6 8 8 7 7
16 17 20 21 19 18 17 16 15 14 14 12 11 11 10 10 10 10 10 9 7 6 6 6 5 4 3 2 3 4 5 6 9 11 6 8 8 10 7 9 9 9 9
17 16 20 21 19 18 17 16 15 15 14 13 12 11 10 9 9 9 9 8 8 7 5 6 6 6 5 4 3 4 5 6 11 9 7 9 7 8 7 9 11 12 12
16 16 19 20 18 17 17 16 16 15 14 13 12 11 10 9 8 8 7 7 7 8 7 6 5 5 5 5 6 6 7 9 12 11 10 10 6 5 8 10 11 14 16
16 15 17 20 19 18 17 17 17 16 15 13 13 12 11 10 9 9 9 8 7 7 8 8 7 7 7 7 8 9 9 10 13 11 10 10 9 8 10 12 12 13 16
15 15 15 17 18 18 18 18 17 15 14 13 12 12 10 10 10 9 11 12 9 9 9 9 9 9 9 10 10 11 11 12 15 13 10 9 11 10 11 13 14 14 15
14 14 14 15 15 15 15 16 16 14 14 12 12 12 11 12 13 12 13 9 9 10 10 11 11 11 11 14 15 13 13 13 13 11 10 5 9 11 14 15 16 15 15
15 14 12 12 12 12 11 12 13 14 14 14 12 12 12 11 9 9 7 8 10 11 12 13 14 14 15 13 14 15 12 14 13 11 10 8 10 14 16 17 18 18 18
15 14 12 10 9 10 8 9 9 9 9 12 12 11 11 9 9 9 8 9 12 13 12 12 13 12 11 9 7 8 10 11 10 10 8 10 13 16 17 16 18 19 19
14 13 11 11 10 10 9 8 8 7 6 8 10 12 11 8 8 8 7 8 8 8 8 9 8 9 10 11 10 10 10 9 10 8 5 9 14 16 16 15 16 17 18
12 12 11 10 10 9 9 8 8 9 9 10 10 11 11 9 9 9 8 8 10 9 8 9 9 8 9 10 10 10 9 9 10 10 9 11 15 17 16 15 16 16 17
12 13 12 11 10 9 9 9 8 10 10 12 11 13 13 12 10 9 10 9 10 10 9 8 9 8 8 8 10 10 10 10 9 10 12 9 15 17 16 15 16 16 17
11 11 11 11 11 12 12 12 10 11 12 11 11 13 14 15 13 11 11 10 10 11 10 9 10 9 9 9 10 10 9 9 9 10 12 11 11 17 20 18 17 17 18
9 10 10 9 10 12 12 12 11 11 11 11 11 12 14 16 16 12 12 12 11 11 10 9 10 10 9 9 8 9 9 8 10 10 11 12 11 11 14 19 18 18 18
6 7 8 8 9 9 10 11 11 10 10 11 11 11 11 14 16 14 13 12 12 10 10 10 10 9 9 9 9 9 9 10 11 12 12 12 13 12 13 12 18 18 18
7 7 7 7 7 7 8 9 9 10 9 8 9 8 10 11 15 15 12 15 14 11 9 9 10 9 9 9 10 11 12 13 13 14 14 13 13 15 16 15 13 16 20
7 8 8 8 7 7 6 8 8 8 8 8 8 9 10 10 13 12 14 14 12 11 10 9 8 10 10 9 11 12 13 14 15 13 13 13 15 15 16 15 14 14 12
8 8 9 9 8 8 7 7 6 6 7 8 9 11 13 13 13 12 13 12 11 10 10 9 8 9 10 8 9 10 11 11 10 11 11 11 13 13 14 15 15 13 13
8 10 10 10 10 9 9 7 6 7 7 9 11 12 14 13 12 9 8 7 7 8 8 8 8 9 9 8 7 6 7 9 8 7 8 10 11 10 11 11 12 12 13
9 9 10 10 10 9 10 10 11 10 11 11 11 12 10 9 9 9 8 6 6 7 7 8 7 6 7 7 6 6 8 7 6 8 9 9 9 9 9 8 9 10 11
12 12 12 12 12 11 11 11 12 13 13 12 12 12 9 6 6 7 8 8 6 6 6 7 6 6 5 6 5 5 7 7 9 8 10 10 8 8 8 8 7 7 8
14 14 14 14 14 13 13 13 13 16 16 15 14 11 8 6 6 8 8 8 7 6 7 8 7 6 5 5 5 5 6 6 6 7 9 9 8 7 7 6 6 6 6
Wind_Direction
160 148 152 163 163 154 138 131 133 140 144 147 147 144 146 146 144 138 132 125 116 110 108 107 105 105 106 105 104 102 104 105 106 106 108 110 111 114 120 135 152 116 114
152 149 155 163 164 159 146 136 134 138 143 145 145 144 147 149 146 141 138 132 126 119 115 112 110 109 111 112 112 111 110 110 111 115 129 134 123 122 130 138 24 110 132
150 149 158 164 165 161 153 145 140 140 143 146 147 149 151 153 152 150 147 143 136 129 122 120 118 118 119 121 123 121 121 123 123 135 210 169 134 137 146 144 116 131 144
154 153 161 162 167 164 159 154 148 145 146 148 151 155 157 157 156 154 151 148 144 139 132 126 127 130 132 138 141 140 144 153 163 209 219 165 154 136 164 167 167 167 163
156 155 155 162 168 168 165 162 157 152 152 154 156 161 166 168 165 159 153 152 154 153 150 144 139 141 148 160 166 166 177 190 210 241 226 208 196 140 183 190 188 193 193
159 161 157 168 170 171 170 168 164 159 159 162 166 170 172 169 168 167 163 163 168 172 172 174 165 166 176 173 175 189 204 217 233 238 228 227 218 155 192 211 211 209 208
164 166 162 173 173 173 174 174 172 169 169 172 176 178 178 174 173 174 176 175 179 186 183 173 179 179 189 199 208 222 233 238 252 258 245 238 235 153 204 230 238 229 216
166 170 163 172 178 179 180 182 182 180 180 180 182 185 184 184 186 188 192 196 195 192 189 187 190 198 211 222 225 228 236 252 249 244 238 241 199 180 231 245 264 252 226
170 171 167 175 182 187 188 190 190 188 188 190 192 192 191 193 200 201 202 212 215 211 207 203 204 214 231 237 236 236 237 247 266 257 247 240 176 199 239 253 267 265 239
176 176 174 178 181 188 192 195 196 195 196 198 201 203 202 204 212 212 213 210 222 230 229 225 223 227 237 242 240 239 241 245 250 254 244 227 172 208 239 253 260 263 251
183 182 182 181 182 192 195 187 196 201 204 207 212 212 216 223 217 208 221 190 219 236 239 240 240 240 243 239 235 236 240 250 248 252 253 199 180 219 239 248 253 256 257
186 187 186 192 183 196 198 186 203 209 205 215 222 215 221 234 241 241 153 193 231 239 241 240 245 248 245 247 226 219 243 245 259 253 243 191 218 237 243 247 248 248 251
187 189 186 196 188 201 207 208 213 218 218 221 227 226 233 242 237 239 235 213 221 230 241 229 233 244 248 248 259 246 255 263 256 254 242 195 231 245 247 247 246 246 247
192 191 193 190 197 208 220 222 229 227 221 228 222 228 231 233 246 249 248 253 244 237 242 254 252 255 262 267 261 262 262 260 271 279 267 207 235 246 249 246 243 243 242
195 196 199 203 207 210 220 237 236 237 234 228 234 226 237 241 241 242 243 248 255 250 241 239 252 260 267 266 263 263 273 271 268 271 269 233 238 244 245 246 243 241 240
198 203 203 208 216 223 225 231 242 248 240 249 238 235 230 239 244 247 243 239 245 249 254 261 260 262 261 262 268 271 273 275 269 265 269 259 232 235 239 242 243 242 239
197 199 203 211 219 224 228 231 236 244 246 244 246 242 238 241 240 241 246 243 241 242 243 248 255 257 258 256 255 261 264 268 270 266 269 272 258 227 223 232 238 237 236
199 196 203 214 221 225 229 232 238 243 250 252 254 253 248 252 252 248 248 247 244 245 245 245 253 259 260 264 271 276 276 271 263 262 260 255 260 263 230 217 226 232 233
202 206 210 217 228 231 233 236 245 250 253 254 253 257 266 266 263 260 260 259 255 251 253 256 253 261 268 270 271 268 269 265 266 263 262 264 262 257 258 222 212 226 230
187 190 196 201 210 221 231 237 242 246 246 247 250 257 271 278 279 274 264 261 259 256 254 257 266 262 266 269 278 281 274 269 265 264 262 260 257 256 254 253 235 224 218
214 215 215 220 208 206 211 220 227 230 232 236 236 237 248 261 271 271 267 265 260 259 257 256 260 264 264 272 280 282 277 269 263 261 260 265 264 260 258 254 245 243 221
265 262 261 254 252 243 230 218 217 217 225 234 246 248 247 249 253 255 252 253 256 253 248 248 252 273 280 278 282 290 289 281 258 252 252 253 259 263 258 246 237 233 238
289 285 283 281 272 265 258 250 238 227 227 227 238 245 245 245 249 237 224 225 237 246 247 251 258 262 274 272 263 267 285 293 315 277 261 259 261 263 261 255 239 231 234
317 306 297 289 279 269 260 256 253 249 249 246 242 241 238 233 228 210 195 194 220 245 249 250 249 256 259 267 261 251 256 271 275 285 274 259 249 254 258 256 250 237 234
324 319 312 305 300 294 282 271 266 263 261 256 244 236 220 201 200 195 178 177 193 226 240 242 232 243 250 266 270 267 266 264 255 258 276 282 279 265 250 240 244 248 247
318 314 310 306 300 293 282 270 259 256 253 246 232 218 202 192 191 193 183 178 189 207 217 225 231 232 248 266 273 267 262 261 262 258 269 282 285 274 261 251 248 250 256
Height
1530 1530 1531 1534 1538 1540 1542 1544 1546 1548 1549 1550 1552 1553 1554 1555 1556 1557 1558 1559 1560 1561 1562 1562 1563 1563 1563 1564 1564 1564 1564 1564 1564 1564 1565 1565 1565 1565 1565 1565 1566 1567 1566
1528 1529 1531 1534 1537 1540 1542 1544 1546 1548 1549 1551 1552 1554 1555 1556 1558 1559 1560 1561 1561 1562 1563 1564 1564 1564 1564 1565 1565 1566 1566 1566 1566 1566 1566 1566 1566 1566 1567 1567 1567 1568 1567
1528 1529 1531 1534 1537 1540 1543 1545 1547 1548 1550 1551 1553 1554 1555 1556 1558 1559 1560 1561 1562 1563 1563 1564 1564 1565 1565 1565 1565 1566 1566 1567 1567 1567 1567 1570 1568 1567 1568 1568 1568 1568 1568
1528 1529 1531 1534 1537 1540 1543 1545 1547 1549 1551 1552 1553 1554 1555 1556 1557 1558 1559 1560 1561 1562 1563 1564 1564 1564 1565 1565 1565 1565 1566 1566 1567 1567 1569 1571 1571 1568 1568 1568 1568 1569 1569
1529 1531 1532 1535 1538 1541 1543 1545 1547 1550 1552 1553 1554 1555 1556 1557 1557 1558 1559 1560 1561 1561 1562 1563 1564 1564 1564 1565 1565 1565 1565 1565 1566 1567 1570 1570 1569 1568 1568 1568 1568 1568 1569
1530 1532 1534 1536 1538 1541 1543 1546 1548 1550 1552 1554 1555 1555 1556 1556 1557 1558 1558 1559 1560 1561 1562 1562 1563 1563 1564 1564 1564 1564 1564 1564 1564 1567 1569 1568 1569 1566 1567 1567 1567 1567 1567
1531 1532 1534 1536 1539 1541 1544 1546 1548 1550 1552 1553 1554 1555 1556 1556 1557 1558 1559 1559 1560 1561 1561 1561 1562 1562 1563 1563 1563 1563 1562 1562 1563 1565 1565 1566 1566 1564 1565 1565 1565 1566 1566
1531 1533 1534 1536 1539 1542 1545 1547 1549 1550 1552 1553 1554 1555 1556 1557 1558 1558 1559 1559 1560 1560 1560 1560 1561 1561 1561 1561 1561 1561 1561 1560 1562 1563 1562 1563 1562 1561 1562 1562 1563 1563 1564
1532 1534 1535 1536 1539 1542 1544 1546 1548 1550 1551 1553 1554 1555 1555 1556 1557 1558 1558 1559 1559 1559 1559 1559 1559 1559 1560 1559 1559 1559 1558 1558 1558 1560 1560 1559 1558 1558 1558 1559 1559 1560 1560
1532 1534 1536 1538 1540 1541 1543 1545 1548 1550 1551 1552 1554 1555 1555 1555 1556 1556 1557 1557 1558 1558 1558 1558 1557 1557 1557 1557 1557 1557 1556 1555 1555 1558 1557 1556 1554 1554 1555 1555 1556 1557 1558
1531 1534 1536 1539 1540 1542 1545 1546 1548 1549 1551 1552 1554 1554 1554 1555 1556 1555 1555 1555 1556 1556 1556 1556 1555 1555 1554 1554 1554 1554 1553 1553 1555 1555 1554 1553 1551 1551 1551 1551 1552 1553 1554
1530 1533 1535 1538 1540 1544 1547 1548 1548 1550 1551 1551 1554 1554 1554 1555 1555 1556 1554 1553 1553 1553 1553 1553 1553 1552 1552 1552 1552 1550 1551 1552 1552 1552 1551 1549 1548 1548 1547 1547 1548 1548 1549
1529 1533 1535 1537 1539 1542 1545 1548 1549 1550 1550 1550 1552 1552 1552 1553 1553 1553 1553 1552 1551 1550 1551 1551 1550 1550 1551 1551 1549 1549 1549 1549 1549 1549 1548 1546 1545 1544 1544 1543 1543 1543 1544
1529 1532 1534 1536 1538 1540 1544 1546 1547 1548 1547 1548 1549 1549 1551 1550 1550 1550 1550 1551 1550 1549 1548 1549 1548 1548 1548 1547 1547 1546 1546 1545 1546 1546 1545 1543 1542 1541 1540 1540 1540 1539 1539
1528 1530 1531 1533 1535 1537 1540 1542 1544 1545 1546 1547 1546 1546 1546 1547 1547 1547 1546 1545 1546 1547 1546 1545 1545 1544 1544 1544 1544 1544 1543 1542 1541 1542 1541 1540 1539 1538 1537 1536 1536 1536 1536
1524 1527 1529 1531 1533 1534 1536 1538 1540 1542 1542 1544 1544 1544 1543 1544 1544 1544 1542 1542 1542 1543 1543 1542 1542 1541 1540 1539 1539 1539 1538 1539 1537 1537 1537 1536 1534 1534 1533 1532 1532 1532 1531
1521 1524 1526 1529 1531 1532 1533 1534 1536 1537 1539 1539 1540 1539 1539 1540 1540 1539 1539 1539 1539 1539 1539 1538 1537 1537 1536 1536 1535 1535 1534 1534 1533 1532 1531 1531 1531 1530 1529 1528 1528 1527 1527
1520 1521 1523 1525 1527 1528 1529 1530 1532 1533 1535 1535 1536 1537 1537 1537 1538 1537 1537 1536 1536 1535 1535 1534 1533 1534 1533 1532 1531 1530 1529 1528 1527 1527 1527 1526 1526 1526 1526 1524 1523 1523 1523
1518 1519 1520 1521 1522 1523 1524 1525 1526 1527 1528 1530 1531 1532 1533 1533 1534 1535 1534 1533 1532 1531 1531 1531 1531 1529 1528 1527 1526 1525 1524 1523 1522 1522 1522 1521 1521 1520 1520 1520 1518 1518 1518
1516 1516 1517 1517 1517 1517 1518 1518 1519 1520 1522 1523 1524 1524 1525 1526 1528 1529 1529 1530 1529 1527 1525 1525 1524 1523 1523 1522 1521 1519 1518 1517 1516 1516 1515 1514 1514 1514 1514 1515 1513 1513 1512
1513 1514 1514 1514 1514 1513 1513 1512 1512 1512 1514 1516 1517 1517 1518 1518 1519 1521 1522 1524 1523 1522 1520 1519 1519 1519 1519 1519 1516 1514 1512 1511 1509 1508 1507 1507 1507 1507 1507 1507 1507 1507 1508
1511 1510 1510 1509 1509 1508 1507 1505 1503 1503 1504 1506 1508 1509 1510 1509 1509 1510 1511 1513 1515 1515 1514 1514 1513 1514 1515 1514 1512 1509 1506 1505 1502 1501 1501 1500 1499 1499 1499 1499 1499 1499 1501
1507 1507 1506 1504 1503 1501 1499 1498 1495 1494 1492 1493 1496 1498 1499 1498 1498 1498 1499 1501 1504 1507 1508 1509 1508 1508 1509 1508 1506 1505 1502 1498 1497 1497 1496 1494 1493 1492 1492 1492 1493 1493 1494
1505 1503 1501 1499 1497 1495 1493 1490 1488 1486 1484 1484 1486 1489 1490 1488 1487 1486 1486 1489 1495 1499 1501 1503 1504 1503 1502 1502 1501 1498 1497 1495 1495 1492 1491 1490 1488 1486 1486 1486 1487 1487 1488
1501 1498 1495 1492 1489 1487 1485 1482 1480 1478 1478 1479 1481 1482 1481 1480 1480 1479 1478 1481 1486 1491 1495 1497 1498 1498 1497 1497 1495 1494 1492 1491 1490 1489 1486 1485 1483 1482 1482 1482 1482 1483 1484
1497 1494 1490 1487 1483 1479 1477 1475 1474 1474 1474 1476 1476 1475 1474 1474 1475 1476 1476 1478 1481 1486 1490 1492 1493 1493 1493 1492 1491 1490 1488 1487 1486 1485 1483 1481 1478 1478 1478 1478 1478 1479 1479